Location: Angwan Shehu
(11.2514°N, 7.4613°E)
Time: 21:20:54
(UTC+00:00)

Cosmos 1328 Rocket - Pass Details

Date: 14 November 2019
Orbit: 600 x 628 km, 82.5° (Epoch: 08 December)

Event Time Altitude Azimuth Distance (km) Brightness Sun altitude
Rises 17:37:32 0° 180° (S) 2,904 7.2 -8.9°
Reaches altitude 10° 17:39:46 10° 177° (S) 1,997 6.4 -9.4°
Maximum altitude 17:44:11 71° 93° (E) 661 3.5 -10.4°
Drops below altitude 10° 17:48:35 10° 10° (N) 1,993 5.9 -11.5°
Sets 17:50:48 0° 8° (N) 2,896 6.8 -12.0°
